Погода в Бакланове

Россия / Орловская область     53°06′52″N   35°53′39″E
темп.,
°C
ветер,
м/с
пор.,
м/с
влажн.,
%
обл.,
%
осадки,
мм/ч
давл.,
гПа
погр.,
м
7 марта, вс
вс700:00−12зюз47890 0.0 101999
03:00−11юз512900 0.0 1017218
06:00−10юз7168919 0.0 1014362
09:00−6юз10198360 0.0 1010679
12:00−3юз111888100 0.0 10061124
15:00−1зюз121893100 0.4 10021268
18:00−1зюз111894100 0.8 10001242
21:00−1з81679100 1.6 10011149
8 марта, пн
пн800:00−5зюз41085100 0.0 1002225
03:00−5зюз51289100 0.0 1002313
06:00−6зюз6139184 0.0 1002416
09:00−6з6139190 0.0 1003618
12:00−4зсз698686 0.0 1005911
15:00−3з578493 0.1 1006975
18:00−6з348961 0.1 100855
21:00−9ссз239635 0.1 101032
9 марта, вт
вт900:00−10сз239499 0.0 101135
03:00−10ссз369699 0.3 1012182
06:00−12ссз4895100 0.2 1014240
09:00−13ссз489583 0.2 1017271
12:00−11ссз478870 0.0 1018553
15:00−9ссз368283 0.0 1019876
18:00−10сз2390100 0.1 102041
21:00−13сз2391100 0.1 102321
10 марта, ср
ср1000:00−16сз229676 0.0 102420
03:00−18зсз119962 0.0 102520
06:00−17юз229638 0.0 102520
09:00−13ю249568 0.2 1025147
12:00−9ююз3493100 0.9 1025390
15:00−6ю1294100 1.9 1025274
18:00−10всв5795100 1.3 1024268
21:00−13в6994100 2.1 1026337
11 марта, чт
чт1100:00−15в4995100 0.3 1028281
03:00−19в489191 0.4 1029181
06:00−22в358579 0.0 103086
09:00−20вюв488566 0.0 1031212
12:00−16вюв46830 0.0 1031304
15:00−13вюв46810 0.0 1031352
18:00−17вюв34900 0.0 103183
21:00−20юв34940 0.0 103266